When you browse on this site, cookies collect data to enhance your experience and personalize the content and advertising you see.
Visit our Privacy Policy to learn more. By continuing to use the site, you agree to this use of cookies and data.
  • In United Kingdom
  • List of Countries
  • For 7 days
  • Water Temperature
  • Satellite Maps
  • Weather Map
  • Weather Widgets
  • user-avatar
    Login

    Hourly Weather Ohul'chans'k

    Today, 23 April, Tuesday

    Time Temperature Precipitation Wind Pressure Humidity
    00:00 +8°C° 0 mm 0 mps 756 mmHg 48%
    01:00 +8°C° 0 mm 0 mps 756 mmHg 49%
    02:00 +8°C° 0 mm 0 mps 756 mmHg 49%
    03:00 +7°C° 0 mm 0 mps 757 mmHg 50%
    04:00 +7°C° 0 mm 0 mps 757 mmHg 51%
    05:00 +7°C° 0 mm 0 mps 757 mmHg 53%
    06:00 +7°C° 0 mm 0 mps 757 mmHg 54%
    07:00 +10°C° 0 mm 1 mps 757 mmHg 50%
    08:00 +12°C° 0 mm 1 mps 757 mmHg 45%
    09:00 +15°C° 0 mm 1 mps 758 mmHg 41%
    10:00 +16°C° 0 mm 1 mps 758 mmHg 37%
    11:00 +18°C° 0 mm 1 mps 758 mmHg 34%
    12:00 +19°C° 0 mm 1 mps 758 mmHg 31%
    13:00 +19°C° 0 mm 1 mps 758 mmHg 31%
    14:00 +18°C° 0 mm 2 mps 758 mmHg 32%
    15:00 +18°C° 0 mm 2 mps 757 mmHg 33%
    16:00 +18°C° 0 mm 2 mps 757 mmHg 36%
    17:00 +18°C° 0 mm 2 mps 757 mmHg 38%
    18:00 +18°C° 0 mm 2 mps 757 mmHg 41%
    19:00 +16°C° 0 mm 2 mps 757 mmHg 44%
    20:00 +15°C° 0 mm 2 mps 757 mmHg 47%
    21:00 +14°C° 0 mm 2 mps 757 mmHg 50%
    22:00 +14°C° 0 mm 2 mps 758 mmHg 51%
    23:00 +13°C° 0 mm 2 mps 758 mmHg 52%

    Tomorrow, 24 April, Wednesday

    Time Temperature Precipitation Wind Pressure Humidity
    00:00 +13°C° 0 mm 2 mps 758 mmHg 54%
    01:00 +13°C° 0 mm 2 mps 758 mmHg 56%
    02:00 +12°C° 0 mm 2 mps 758 mmHg 57%
    03:00 +12°C° 0 mm 2 mps 758 mmHg 59%
    04:00 +12°C° 0 mm 2 mps 758 mmHg 61%
    05:00 +12°C° 0 mm 2 mps 758 mmHg 63%
    06:00 +10°C° 0 mm 2 mps 758 mmHg 66%
    07:00 +12°C° 0 mm 3 mps 758 mmHg 60%
    08:00 +14°C° 0 mm 3 mps 758 mmHg 54%
    09:00 +17°C° 0 mm 4 mps 758 mmHg 48%
    10:00 +18°C° 0 mm 4 mps 758 mmHg 44%
    11:00 +19°C° 0 mm 4 mps 758 mmHg 40%
    12:00 +20°C° 0 mm 5 mps 757 mmHg 36%
    13:00 +20°C° 0 mm 5 mps 757 mmHg 37%
    14:00 +20°C° 0 mm 5 mps 757 mmHg 38%
    15:00 +20°C° 0 mm 4 mps 757 mmHg 39%
    16:00 +20°C° 0 mm 4 mps 757 mmHg 43%
    17:00 +19°C° 0 mm 3 mps 757 mmHg 47%
    18:00 +19°C° 0 mm 3 mps 757 mmHg 51%
    19:00 +18°C° 0 mm 3 mps 757 mmHg 53%
    20:00 +17°C° 0 mm 3 mps 757 mmHg 55%
    21:00 +16°C° 0 mm 2 mps 757 mmHg 57%
    22:00 +15°C° 0 mm 2 mps 757 mmHg 60%
    23:00 +14°C° 0 mm 2 mps 757 mmHg 63%

    Day after tomorrow, 25 April, Thursday

    Time Temperature Precipitation Wind Pressure Humidity
    00:00 +14°C° 0 mm 2 mps 757 mmHg 66%
    01:00 +13°C° 0 mm 2 mps 757 mmHg 67%
    02:00 +13°C° 0 mm 1 mps 757 mmHg 69%
    03:00 +12°C° 0 mm 1 mps 757 mmHg 71%
    04:00 +12°C° 0 mm 1 mps 757 mmHg 73%
    05:00 +12°C° 0 mm 1 mps 757 mmHg 74%
    06:00 +12°C° 0 mm 1 mps 757 mmHg 75%
    07:00 +14°C° 0 mm 2 mps 757 mmHg 68%
    08:00 +16°C° 0 mm 2 mps 757 mmHg 62%
    09:00 +18°C° 0 mm 2 mps 757 mmHg 55%
    10:00 +19°C° 0 mm 2 mps 757 mmHg 51%
    11:00 +21°C° 0 mm 2 mps 757 mmHg 46%
    12:00 +22°C° 0 mm 3 mps 757 mmHg 42%
    13:00 +22°C° 0 mm 3 mps 757 mmHg 40%
    14:00 +24°C° 0 mm 3 mps 756 mmHg 39%
    15:00 +24°C° 0 mm 2 mps 756 mmHg 37%
    16:00 +24°C° 0 mm 2 mps 756 mmHg 40%
    17:00 +24°C° 0 mm 2 mps 756 mmHg 43%
    18:00 +23°C° 0 mm 1 mps 756 mmHg 46%
    19:00 +22°C° 0 mm 1 mps 756 mmHg 48%
    20:00 +20°C° 0 mm 1 mps 756 mmHg 51%
    21:00 +17°C° 0 mm 0 mps 756 mmHg 53%
    22:00 +16°C° 0 mm 0 mps 755 mmHg 55%
    23:00 +16°C° 0 mm 0 mps 755 mmHg 57%

    26 April, Friday

    Time Temperature Precipitation Wind Pressure Humidity
    00:00 +16°C° 0 mm 1 mps 755 mmHg 59%
    01:00 +16°C° 0 mm 1 mps 755 mmHg 61%
    02:00 +15°C° 0 mm 1 mps 755 mmHg 62%
    03:00 +15°C° 0 mm 1 mps 755 mmHg 64%
    04:00 +15°C° 0 mm 1 mps 755 mmHg 65%
    05:00 +15°C° 0 mm 1 mps 755 mmHg 67%
    06:00 +14°C° 0 mm 1 mps 755 mmHg 68%
    07:00 +16°C° 0 mm 1 mps 755 mmHg 62%
    08:00 +19°C° 0 mm 1 mps 755 mmHg 57%
    09:00 +21°C° 0 mm 1 mps 755 mmHg 51%
    10:00 +22°C° 0 mm 1 mps 755 mmHg 47%
    11:00 +24°C° 0 mm 1 mps 755 mmHg 43%
    12:00 +25°C° 0 mm 1 mps 755 mmHg 38%
    13:00 +25°C° 0 mm 1 mps 754 mmHg 38%
    14:00 +25°C° 0 mm 1 mps 754 mmHg 37%
    15:00 +25°C° 0 mm 1 mps 754 mmHg 37%
    16:00 +24°C° 0 mm 1 mps 754 mmHg 41%
    17:00 +23°C° 0 mm 1 mps 754 mmHg 45%
    18:00 +23°C° 0 mm 1 mps 754 mmHg 48%
    19:00 +22°C° 0 mm 1 mps 754 mmHg 50%
    20:00 +21°C° 0 mm 1 mps 754 mmHg 51%
    21:00 +19°C° 0 mm 2 mps 754 mmHg 52%
    22:00 +19°C° 0 mm 2 mps 754 mmHg 54%
    23:00 +18°C° 0 mm 2 mps 754 mmHg 56%

    27 April, Saturday

    Time Temperature Precipitation Wind Pressure Humidity
    00:00 +18°C° 0 mm 2 mps 754 mmHg 58%
    01:00 +18°C° 0 mm 1 mps 754 mmHg 61%
    02:00 +16°C° 0 mm 1 mps 753 mmHg 64%
    03:00 +15°C° 0 mm 1 mps 753 mmHg 67%
    04:00 +15°C° 0 mm 1 mps 753 mmHg 69%
    05:00 +15°C° 0 mm 1 mps 753 mmHg 70%
    06:00 +14°C° 0 mm 0 mps 753 mmHg 72%
    07:00 +16°C° 0 mm 0 mps 753 mmHg 66%
    08:00 +17°C° 0 mm 0 mps 754 mmHg 60%
    09:00 +19°C° 0 mm 0 mps 754 mmHg 55%
    10:00 +22°C° 0 mm 1 mps 753 mmHg 49%
    11:00 +23°C° 0 mm 2 mps 753 mmHg 44%
    12:00 +24°C° 0 mm 2 mps 753 mmHg 38%
    13:00 +24°C° 0 mm 2 mps 753 mmHg 39%
    14:00 +24°C° 0 mm 2 mps 753 mmHg 40%
    15:00 +23°C° 0 mm 1 mps 752 mmHg 41%
    16:00 +23°C° 0 mm 1 mps 752 mmHg 41%
    17:00 +23°C° 0 mm 1 mps 752 mmHg 42%
    18:00 +23°C° 0 mm 1 mps 752 mmHg 43%
    19:00 +22°C° 0 mm 1 mps 752 mmHg 45%
    20:00 +19°C° 0 mm 0 mps 752 mmHg 46%
    21:00 +18°C° 0 mm 0 mps 752 mmHg 48%
    22:00 +18°C° 0 mm 0 mps 752 mmHg 49%
    23:00 +17°C° 0 mm 0 mps 751 mmHg 49%

    28 April, Sunday

    Time Temperature Precipitation Wind Pressure Humidity
    00:00 +17°C° 0 mm 0 mps 751 mmHg 50%
    01:00 +17°C° 0 mm 0 mps 751 mmHg 51%
    02:00 +17°C° 0 mm 0 mps 751 mmHg 52%
    03:00 +16°C° 0 mm 0 mps 751 mmHg 53%
    04:00 +16°C° 0 mm 0 mps 751 mmHg 56%
    05:00 +18°C° 0 mm 1 mps 751 mmHg 58%
    06:00 +16°C° 0 mm 1 mps 751 mmHg 61%
    07:00 +19°C° 0 mm 1 mps 751 mmHg 58%
    08:00 +18°C° 0 mm 0 mps 751 mmHg 55%
    09:00 +19°C° 0 mm 0 mps 751 mmHg 52%
    10:00 +20°C° 0 mm 0 mps 751 mmHg 47%
    11:00 +21°C° 0 mm 0 mps 751 mmHg 43%
    12:00 +24°C° 0 mm 1 mps 751 mmHg 39%
    13:00 +22°C° 0 mm 0 mps 751 mmHg 40%
    14:00 +21°C° 0 mm 0 mps 750 mmHg 41%
    15:00 +21°C° 0 mm 0 mps 750 mmHg 43%
    16:00 +21°C° 0 mm 0 mps 750 mmHg 43%
    17:00 +21°C° 0 mm 0 mps 750 mmHg 43%
    18:00 +23°C° 0 mm 1 mps 750 mmHg 44%
    19:00 +22°C° 0 mm 1 mps 750 mmHg 48%
    20:00 +20°C° 0 mm 1 mps 750 mmHg 52%
    21:00 +19°C° 0 mm 1 mps 750 mmHg 56%
    22:00 +18°C° 0 mm 1 mps 750 mmHg 58%
    23:00 +18°C° 0 mm 1 mps 750 mmHg 60%
    Show more